• In Latvia
  • List of Countries
  • For 7 days
  • Water Temperature
  • Satellite Maps
  • Weather Map
  • Weather Widgets
  • user-avatar
    Login

    Hourly Weather Malanje

    Today, 23 August, Wednesday

    Time Temperature Precipitation Wind Pressure Humidity
    00:00 +23°C° 0 mm 1 mps 665 mmHg 29%
    01:00 +22°C° 0 mm 1 mps 665 mmHg 32%
    02:00 +21°C° 0 mm 1 mps 665 mmHg 40%
    03:00 +20°C° 0 mm 1 mps 664 mmHg 47%
    04:00 +19°C° 0 mm 1 mps 664 mmHg 54%
    05:00 +19°C° 0 mm 1 mps 665 mmHg 56%
    06:00 +19°C° 0 mm 1 mps 665 mmHg 58%
    07:00 +20°C° 0 mm 1 mps 665 mmHg 72%
    08:00 +23°C° 0 mm 1 mps 666 mmHg 58%
    09:00 +27°C° 0 mm 1 mps 667 mmHg 44%
    10:00 +31°C° 0 mm 1 mps 668 mmHg 30%
    11:00 +33°C° 0 mm 1 mps 667 mmHg 24%
    12:00 +35°C° 0 mm 1 mps 667 mmHg 18%
    13:00 +34°C° 0 mm 1 mps 667 mmHg 23%
    14:00 +34°C° 0 mm 1 mps 667 mmHg 21%
    15:00 +34°C° 0 mm 1 mps 666 mmHg 18%
    16:00 +34°C° 0 mm 1 mps 666 mmHg 16%
    17:00 +32°C° 0 mm 1 mps 665 mmHg 19%
    18:00 +30°C° 0 mm 1 mps 665 mmHg 21%
    19:00 +28°C° 0 mm 1 mps 665 mmHg 24%
    20:00 +27°C° 0 mm 1 mps 665 mmHg 28%
    21:00 +26°C° 0 mm 1 mps 665 mmHg 33%
    22:00 +25°C° 0 mm 2 mps 666 mmHg 37%
    23:00 +24°C° 0 mm 2 mps 665 mmHg 45%

    Tomorrow, 24 August, Thursday

    Time Temperature Precipitation Wind Pressure Humidity
    00:00 +23°C° 0 mm 2 mps 665 mmHg 52%
    01:00 +21°C° 0 mm 3 mps 665 mmHg 60%
    02:00 +20°C° 0 mm 3 mps 665 mmHg 66%
    03:00 +19°C° 0 mm 3 mps 664 mmHg 72%
    04:00 +18°C° 0 mm 2 mps 664 mmHg 78%
    05:00 +18°C° 0 mm 2 mps 664 mmHg 79%
    06:00 +18°C° 0 mm 2 mps 665 mmHg 80%
    07:00 +18°C° 0 mm 2 mps 665 mmHg 81%
    08:00 +21°C° 0 mm 2 mps 666 mmHg 66%
    09:00 +26°C° 0 mm 2 mps 667 mmHg 51%
    10:00 +29°C° 0 mm 2 mps 668 mmHg 36%
    11:00 +32°C° 0 mm 1 mps 668 mmHg 30%
    12:00 +35°C° 0 mm 1 mps 667 mmHg 24%
    13:00 +37°C° 0 mm 1 mps 667 mmHg 17%
    14:00 +37°C° 0 mm 1 mps 666 mmHg 17%
    15:00 +36°C° 0 mm 1 mps 666 mmHg 17%
    16:00 +35°C° 0 mm 1 mps 665 mmHg 16%
    17:00 +34°C° 0 mm 2 mps 665 mmHg 20%
    18:00 +31°C° 0 mm 2 mps 665 mmHg 24%
    19:00 +29°C° 0 mm 3 mps 665 mmHg 28%
    20:00 +28°C° 0 mm 3 mps 665 mmHg 34%
    21:00 +27°C° 0 mm 3 mps 665 mmHg 41%
    22:00 +25°C° 0 mm 3 mps 665 mmHg 47%
    23:00 +23°C° 0 mm 4 mps 665 mmHg 53%

    Day after tomorrow, 25 August, Friday

    Time Temperature Precipitation Wind Pressure Humidity
    00:00 +22°C° 0 mm 4 mps 665 mmHg 58%
    01:00 +21°C° 0 mm 4 mps 664 mmHg 64%
    02:00 +20°C° 0 mm 4 mps 664 mmHg 66%
    03:00 +19°C° 0 mm 3 mps 664 mmHg 68%
    04:00 +19°C° 0 mm 3 mps 664 mmHg 69%
    05:00 +19°C° 0 mm 3 mps 664 mmHg 70%
    06:00 +18°C° 0 mm 2 mps 664 mmHg 71%
    07:00 +18°C° 0 mm 2 mps 665 mmHg 72%
    08:00 +23°C° 0 mm 2 mps 665 mmHg 59%
    09:00 +26°C° 0 mm 2 mps 666 mmHg 46%
    10:00 +30°C° 0 mm 2 mps 667 mmHg 32%
    11:00 +32°C° 0 mm 2 mps 667 mmHg 27%
    12:00 +36°C° 0 mm 2 mps 666 mmHg 21%
    13:00 +37°C° 0 mm 1 mps 666 mmHg 15%
    14:00 +38°C° 0 mm 2 mps 665 mmHg 15%
    15:00 +38°C° 0 mm 2 mps 665 mmHg 14%
    16:00 +37°C° 0 mm 2 mps 664 mmHg 14%
    17:00 +35°C° 0 mm 2 mps 664 mmHg 19%
    18:00 +31°C° 0 mm 3 mps 664 mmHg 25%
    19:00 +29°C° 0 mm 3 mps 664 mmHg 31%
    20:00 +27°C° 0 mm 3 mps 664 mmHg 36%
    21:00 +26°C° 0 mm 3 mps 664 mmHg 42%
    22:00 +24°C° 0 mm 3 mps 664 mmHg 47%
    23:00 +24°C° 0 mm 3 mps 664 mmHg 51%

    26 August, Saturday

    Time Temperature Precipitation Wind Pressure Humidity
    00:00 +22°C° 0 mm 3 mps 664 mmHg 55%
    01:00 +21°C° 0 mm 3 mps 663 mmHg 59%
    02:00 +20°C° 0 mm 3 mps 663 mmHg 63%
    03:00 +19°C° 0 mm 3 mps 663 mmHg 68%
    04:00 +18°C° 0 mm 3 mps 663 mmHg 72%
    05:00 +18°C° 0 mm 3 mps 663 mmHg 74%
    06:00 +18°C° 0 mm 3 mps 664 mmHg 75%
    07:00 +18°C° 0 mm 2 mps 664 mmHg 76%
    08:00 +21°C° 0 mm 2 mps 665 mmHg 62%
    09:00 +26°C° 0 mm 2 mps 666 mmHg 48%
    10:00 +30°C° 0 mm 2 mps 667 mmHg 35%
    11:00 +32°C° 0 mm 2 mps 666 mmHg 29%
    12:00 +35°C° 0 mm 1 mps 666 mmHg 23%
    13:00 +37°C° 0 mm 1 mps 665 mmHg 16%
    14:00 +37°C° 0 mm 1 mps 665 mmHg 15%
    15:00 +38°C° 0 mm 2 mps 664 mmHg 14%
    16:00 +38°C° 0 mm 2 mps 664 mmHg 13%
    17:00 +35°C° 0 mm 2 mps 664 mmHg 20%
    18:00 +31°C° 0 mm 3 mps 663 mmHg 26%
    19:00 +28°C° 0 mm 3 mps 663 mmHg 32%
    20:00 +27°C° 0 mm 4 mps 663 mmHg 38%
    21:00 +25°C° 0 mm 4 mps 663 mmHg 44%
    22:00 +22°C° 0 mm 4 mps 664 mmHg 49%
    23:00 +21°C° 0 mm 4 mps 663 mmHg 55%

    27 August, Sunday

    Time Temperature Precipitation Wind Pressure Humidity
    00:00 +20°C° 0 mm 4 mps 663 mmHg 62%
    01:00 +19°C° 0 mm 3 mps 662 mmHg 68%
    02:00 +18°C° 0 mm 3 mps 663 mmHg 72%
    03:00 +17°C° 0 mm 3 mps 663 mmHg 76%
    04:00 +17°C° 0 mm 2 mps 663 mmHg 81%
    05:00 +17°C° 0 mm 2 mps 663 mmHg 80%
    06:00 +17°C° 0 mm 3 mps 664 mmHg 80%
    07:00 +17°C° 0 mm 3 mps 664 mmHg 79%
    08:00 +20°C° 0 mm 2 mps 665 mmHg 64%
    09:00 +25°C° 0 mm 2 mps 666 mmHg 50%
    10:00 +29°C° 0 mm 2 mps 666 mmHg 35%
    11:00 +31°C° 0 mm 2 mps 666 mmHg 29%
    12:00 +35°C° 0 mm 2 mps 666 mmHg 23%
    13:00 +37°C° 0 mm 2 mps 665 mmHg 18%
    14:00 +37°C° 0 mm 2 mps 665 mmHg 17%
    15:00 +37°C° 0 mm 2 mps 665 mmHg 17%
    16:00 +37°C° 0 mm 2 mps 664 mmHg 16%
    17:00 +34°C° 0 mm 2 mps 664 mmHg 21%
    18:00 +31°C° 0 mm 3 mps 664 mmHg 26%
    19:00 +29°C° 0 mm 3 mps 664 mmHg 31%
    20:00 +27°C° 0 mm 3 mps 665 mmHg 36%
    21:00 +26°C° 0 mm 3 mps 665 mmHg 41%
    22:00 +24°C° 0 mm 3 mps 665 mmHg 46%
    23:00 +22°C° 0 mm 3 mps 664 mmHg 51%

    28 August, Monday

    Time Temperature Precipitation Wind Pressure Humidity
    00:00 +21°C° 0 mm 3 mps 664 mmHg 56%
    01:00 +19°C° 0 mm 3 mps 664 mmHg 62%
    02:00 +18°C° 0 mm 3 mps 663 mmHg 67%
    03:00 +18°C° 0 mm 3 mps 663 mmHg 72%
    04:00 +17°C° 0 mm 3 mps 663 mmHg 78%
    05:00 +17°C° 0 mm 3 mps 664 mmHg 78%
    06:00 +17°C° 0 mm 3 mps 664 mmHg 78%
    07:00 +17°C° 0 mm 3 mps 664 mmHg 78%
    08:00 +20°C° 0 mm 3 mps 665 mmHg 64%
    09:00 +25°C° 0 mm 3 mps 666 mmHg 51%
    10:00 +28°C° 0 mm 3 mps 667 mmHg 37%
    11:00 +31°C° 0 mm 2 mps 666 mmHg 32%
    12:00 +35°C° 0 mm 2 mps 666 mmHg 26%
    13:00 +36°C° 0 mm 1 mps 666 mmHg 21%
    14:00 +36°C° 0 mm 1 mps 666 mmHg 21%
    15:00 +37°C° 0 mm 2 mps 665 mmHg 20%
    16:00 +36°C° 0 mm 2 mps 664 mmHg 20%
    17:00 +34°C° 0 mm 2 mps 664 mmHg 23%
    18:00 +31°C° 0 mm 3 mps 664 mmHg 26%
    19:00 +29°C° 0 mm 3 mps 664 mmHg 30%
    20:00 +27°C° 0 mm 4 mps 665 mmHg 34%
    21:00 +26°C° 0 mm 4 mps 665 mmHg 39%
    22:00 +23°C° 0 mm 4 mps 665 mmHg 43%
    23:00 +21°C° 0 mm 4 mps 665 mmHg 50%
    Show more